Location: Banff
(51.1667°N, 115.5667°W)
Time: 09:25:42
(UTC+00:00)

Envisat - Pass Details

Date: 28 November 2022
Orbit: 763 x 765 km, 98.2° (Epoch: 28 January)

Event Time Altitude Azimuth Distance (km) Brightness Sun altitude
Rises 10:47:02 0° 25° (NNE) 3,246 6.7 -41.7°
Reaches altitude 10° 10:49:59 10° 43° (NE) 2,314 6.0 -41.2°
Enters shadow 10:52:03 17° 65° (ENE) 1,860 5.5 -40.9°
